Regional Weather Roundup
Issued by NWS

Home | Current Version | Previous Version | Text Only | Print | Product List | Glossary On
Versions: 1 2 3 4 5 6 7 8 9 10 11 12 13 14 15 16 17 18 19 20 21 22 23 24 25 26 27 28 29 30 31 32 33 34 35 36 37 38 39 40 41 42 43 44 45 46 47 48 49 50
000
ASUS45 KREV 310910
RWRNV
NEVADA REGIONAL WEATHER ROUNDUP
NATIONAL WEATHER SERVICE RENO NV
200 AM PDT THU JUL 31 2014

NOTE: "FAIR" INDICATES FEW OR NO CLOUDS BELOW 12,000 FEET WITH NO
SIGNIFICANT WEATHER AND/OR OBSTRUCTIONS TO VISIBILITY.

NVZ001-003-004-311000-
WESTERN NEVADA

CITY           SKY/WX    TMP DP  RH WIND       PRES   REMARKS
RENO           MOCLDY    69  50  50 W10       30.21S
CARSON CITY    FAIR      64  48  55 N5        30.25R
SLIDE MTN        N/A     55  36  47 CALM        N/A
PYRAMID LAKE     N/A     75 N/A N/A SW6         N/A
FALLON         CLOUDY    78  45  30 SW9       30.15F
LOVELOCK       MOCLDY    67  42  40 NW3       30.15S
HAWTHORNE      MOCLDY    72  46  40 CALM      30.18F
$$

NVZ002-CAZ072-073-311000-
NORTHERN AND CENTRAL SIERRA

CITY           SKY/WX    TMP DP  RH WIND       PRES   REMARKS
S. LAKE TAHOE  PTCLDY    53  45  74 CALM      30.34S
TRUCKEE        CLEAR     46  46 100 CALM      30.34S
SQUAW VLY 8000 NOT AVBL
SUSANVILLE     CLEAR     57  48  72 W6        30.20F
BLUE CANYON    CLEAR     72  41  32 E3        30.26S
MAMMOTH LAKES  FAIR      52  46  82 N5        30.40F
BRIDGEPORT     FAIR      51  41  68 CALM      30.37S
$$

NVZ030-031-036-311000-
NORTHERN NEVADA

CITY           SKY/WX    TMP DP  RH WIND       PRES   REMARKS
ELKO           MOCLDY    71  45  39 NE8       30.22R
WINNEMUCCA     CLOUDY    74  47  38 NE15      30.17S
WENDOVER       MOCLDY    73  55  53 CALM      30.20S
$$

NVZ035-037-311000-
CENTRAL NEVADA

CITY           SKY/WX    TMP DP  RH WIND       PRES   REMARKS
ELY            CLOUDY    63  47  55 CALM      30.31R
EUREKA           N/A     66  42  41 SW6       30.28S
$$

NVZ013-014-311000-
SOUTH CENTRAL NEVADA

CITY           SKY/WX    TMP DP  RH WIND       PRES   REMARKS
TONOPAH        PTCLDY    65  51  60 N13       30.25S
$$

NVZ017-020-022-311000-
SOUTHERN NEVADA

CITY           SKY/WX    TMP DP  RH WIND       PRES   REMARKS
LAS VEGAS      MOCLDY    90  48  23 SW5       29.91S
N. LAS VEGAS   CLEAR     88  47  24 N7        29.94S
NELLIS AFB     PTCLDY    90  50  25 W5        29.93R
HENDERSON      PTCLDY    84  52  33 E5        29.98S
MERCURY        PTCLDY    79  46  31 NE3       30.05S
$$



USA.gov is the U.S. government's official web portal to all federal, state and local government web resources and services.